THORAD DELTA 1 DEB, 9696

Orbit data source: Space-Track

THORAD DELTA 1 DEB, 9696 is space debris in SSO originally from a launch on Fri, 15 Nov 1974 UTC launched from the Air Force Western Test Range (AFWTR). Debris objects in space refer to the collection of defunct objects orbiting the Earth. Examples of debris include non-operational satellites, rocket bodies, and fragments generated from explosions, collisions, or faulty payload assembly.

Loading next visibility...
Identifier
9696, 1974-089DV
Orbit
SSO
Country
Flag of USUS
Related business
Manufacturer
Unknown
Mission
Spacecraft
Bus & Motor
Unknown
Mass
Unknown
Launch date (UTC)
1974-11-15 (51 years ago)
Launch vehicle
Unknown
Launch site
Air Force Western Test Range (AFWTR)
Object type
Payload
Rocket body
Debris
Shape & HBR
Unknown shape, 0.1 m
Radar Cross Section
Small (<0.1 m²)

Expand to show TLE details & history
Last TLE update: 13 hours ago

TLE from 13 hours ago
0 THORAD DELTA 1 DEB
1 09696U 74089DV  25352.28969113  .00000181  00000-0  19191-2 0  9997
2 09696 100.8039 188.7058 0196677 284.2984 260.6227 12.22592928276926
Epoch: 2025-12-18T06:57Z
TLE epoch observation values (Epoch: 2025-12-18T06:57:09.313Z)
Latitude
-2.77768°
Longitude
176.74174°
Altitude
1,612.735 km
Speed
7.051 km/s
True Right ascension
00h 32m 42s
True Declination
-2° 45' 46"
Sunlit
Object was in daylight at epoch
Visualization orbit readout
Latitude
Unknown
Longitude
Unknown
Altitude
Unknown
Speed
Unknown
Apparent Right ascension
Unknown
Apparent Declination
Unknown
Sunlit
N/A
Visualization observer readout
Local Sidereal Time
18:40:35
Azimuth
Unknown
Elevation
Unknown
Doppler factor
Unknown
Orbital elements
Apogee altitude
1,735.291 km
Perigee altitude
1,422.302 km
Semi-major axis
7,956.934 km
Eccentricity
0.01967
Inclination
100.8039°
RAAN
188.7058°
Arg. of periapsis
284.2984°
True anomaly
258.40849°
Mean anomaly
260.6227°
Eccentric anomaly
259.51464°
Mean motion
3.05791 °/min
Orbital period
117.73 mins
BSTAR
0.0019191
Loading maneuver chart data...
Computing Atmospheric mass density...
Loading historical data...
Loading historical data...
Loading historical data...
Loading historical data...
Loading historical data...
Loading historical data...
Loading historical data...

Documentation

Showing up to 5 results
|